Tracking 19709 objects as of 21-Jun-2019
HD Live streaming from Space Station
objects crossing your sky now

FENGYUN 1C DEB

Track FENGYUN 1C DEB now!
10-day predictions


NORAD ID: 30371
Int'l Code: 1999-025ACJ
Perigee: 826.6 km
Apogee: 837.1 km
Inclination: 98.8 °
Period: 101.4 minutes
Semi major axis: 7202 km
RCS: 0.046 m2 (small)
Launch date: May 10, 1999
Source: People's Republic of China (PRC)
Launch site: Taiyaun Space Center, China (TSC)

Note: This is SATELLITE DEBRIS
aabbcc
Your satellite tracking list
Your tracking list is empty




NASA's NSSDC Master Catalog

Two Line Element Set (TLE):
1 30371U 99025ACJ 19171.72673687  .00000356  00000-0  18739-3 0  9999
2 30371  98.7903 214.4538 0007253  15.5999 103.6826 14.20192722642495
Source of the keplerian elements: AFSPC